| time (UTC) | temp F | wind direction | speed MPH | gust MPH | rain 1hr in | rain 24hr in | rain mn in | humidity % | barometer mb |
| 20260904102921 | 79 | 124 | 3.0 | 6.0 | 0.00 | 0.00 | 0.00 | 84 | 1011.4 |
| 20260904102421 | 79 | 123 | 3.0 | 6.0 | 0.00 | 0.00 | 0.00 | 84 | 1011.5 |
| 20260904101921 | 79 | 123 | 3.0 | 6.0 | 0.00 | 0.00 | 0.00 | 84 | 1011.4 |
| 20260904101420 | 79 | 114 | 3.0 | 6.0 | 0.00 | 0.00 | 0.00 | 84 | 1011.4 |
| 20260904100920 | 79 | 115 | 3.0 | 6.0 | 0.00 | 0.00 | 0.00 | 84 | 1011.3 |
| 20260904100422 | 79 | 115 | 3.0 | 6.0 | 0.00 | 0.00 | 0.00 | 84 | 1011.3 |
| 20260904095421 | 78 | 110 | 3.0 | 6.0 | 0.00 | 0.00 | 0.00 | 84 | 1011.3 |
| 20260904094921 | 78 | 124 | 2.0 | 6.0 | 0.00 | 0.00 | 0.00 | 84 | 1011.3 |
| 20260904094420 | 78 | 148 | 3.0 | 6.0 | 0.00 | 0.00 | 0.00 | 84 | 1011.1 |
| 20260904093922 | 78 | 155 | 3.0 | 6.0 | 0.00 | 0.00 | 0.00 | 84 | 1011.3 |
| 20260904093420 | 78 | 130 | 3.0 | 6.0 | 0.00 | 0.00 | 0.00 | 84 | 1011.3 |
| 20260904092920 | 78 | 143 | 3.0 | 6.0 | 0.00 | 0.00 | 0.00 | 84 | 1011.3 |
| 20260904091921 | 79 | 137 | 4.0 | 7.0 | 0.00 | 0.00 | 0.00 | 83 | 1011.3 |
| 20260904091421 | 78 | 119 | 3.0 | 7.0 | 0.00 | 0.00 | 0.00 | 83 | 1011.2 |
| 20260904090921 | 78 | 141 | 4.0 | 8.0 | 0.00 | 0.00 | 0.00 | 83 | 1011.1 |
| 20260904090420 | 79 | 137 | 5.0 | 8.0 | 0.00 | 0.00 | 0.00 | 83 | 1011.2 |
| 20260904085420 | 79 | 128 | 4.0 | 9.0 | 0.00 | 0.00 | 0.00 | 83 | 1011.2 |
| 20260904084920 | 79 | 138 | 5.0 | 9.0 | 0.00 | 0.00 | 0.00 | 83 | 1011.1 |
| 20260904084421 | 79 | 135 | 6.0 | 9.0 | 0.00 | 0.00 | 0.00 | 82 | 1011.1 |
| 20260904083421 | 79 | 146 | 5.0 | 8.0 | 0.00 | 0.00 | 0.00 | 82 | 1011.0 |
| 20260904082921 | 79 | 155 | 4.0 | 8.0 | 0.00 | 0.00 | 0.00 | 82 | 1011.0 |
| 20260904081921 | 79 | 162 | 5.0 | 10.0 | 0.00 | 0.00 | 0.00 | 82 | 1011.1 |
| 20260904081421 | 79 | 151 | 5.0 | 12.0 | 0.00 | 0.00 | 0.00 | 81 | 1011.2 |
| 20260904080921 | 79 | 150 | 6.0 | 12.0 | 0.00 | 0.00 | 0.00 | 81 | 1011.1 |
| 20260904080421 | 79 | 151 | 5.0 | 8.0 | 0.00 | 0.00 | 0.00 | 81 | 1011.0 |
| 20260904075921 | 79 | 180 | 5.0 | 9.0 | 0.00 | 0.00 | 0.00 | 81 | 1011.2 |
| 20260904075420 | 79 | 179 | 5.0 | 10.0 | 0.00 | 0.00 | 0.00 | 81 | 1011.1 |
| 20260904074922 | 79 | 174 | 6.0 | 10.0 | 0.00 | 0.00 | 0.00 | 80 | 1011.1 |
| 20260904074421 | 79 | 147 | 5.0 | 12.0 | 0.00 | 0.00 | 0.00 | 80 | 1011.1 |
| 20260904073922 | 79 | 141 | 6.0 | 12.0 | 0.00 | 0.00 | 0.00 | 80 | 1011.2 |
| 20260904072921 | 79 | 154 | 5.0 | 9.0 | 0.00 | 0.00 | 0.00 | 79 | 1011.2 |
| 20260904072421 | 79 | 158 | 5.0 | 12.0 | 0.00 | 0.00 | 0.00 | 79 | 1011.1 |
| 20260904071921 | 79 | 160 | 6.0 | 12.0 | 0.00 | 0.00 | 0.00 | 79 | 1011.3 |
| 20260904071421 | 80 | 182 | 7.0 | 9.0 | 0.00 | 0.00 | 0.00 | 78 | 1011.2 |
| 20260904070422 | 80 | 172 | 6.0 | 12.0 | 0.00 | 0.00 | 0.00 | 78 | 1011.3 |
| 20260904065922 | 80 | 163 | 6.0 | 12.0 | 0.00 | 0.00 | 0.00 | 78 | 1011.3 |
| 20260904065421 | 80 | 165 | 7.0 | 9.0 | 0.00 | 0.00 | 0.00 | 78 | 1011.3 |
| 20260904064421 | 80 | 161 | 6.0 | 12.0 | 0.00 | 0.00 | 0.00 | 77 | 1011.4 |
| 20260904063921 | 80 | 169 | 6.0 | 12.0 | 0.00 | 0.00 | 0.00 | 77 | 1011.3 |
| 20260904063421 | 80 | 159 | 6.0 | 10.0 | 0.00 | 0.00 | 0.00 | 77 | 1011.4 |
| 20260904062922 | 80 | 173 | 7.0 | 10.0 | 0.00 | 0.00 | 0.00 | 77 | 1011.3 |
| 20260904062422 | 80 | 156 | 5.0 | 10.0 | 0.00 | 0.00 | 0.00 | 76 | 1011.4 |
| 20260904061922 | 80 | 170 | 5.0 | 9.0 | 0.00 | 0.00 | 0.00 | 76 | 1011.4 |
| 20260904060922 | 80 | 147 | 6.0 | 12.0 | 0.00 | 0.00 | 0.00 | 75 | 1011.4 |
| 20260904060421 | 80 | 153 | 8.0 | 12.0 | 0.00 | 0.00 | 0.00 | 75 | 1011.5 |
| 20260904055422 | 80 | 147 | 6.0 | 10.0 | 0.00 | 0.00 | 0.00 | 74 | 1011.5 |
| 20260904054921 | 80 | 147 | 6.0 | 10.0 | 0.00 | 0.00 | 0.00 | 74 | 1011.6 |
| 20260904054421 | 80 | 152 | 5.0 | 9.0 | 0.00 | 0.00 | 0.00 | 73 | 1011.4 |
| 20260904053922 | 81 | 154 | 6.0 | 8.0 | 0.00 | 0.00 | 0.00 | 72 | 1011.5 |
| 20260904053422 | 81 | 158 | 5.0 | 9.0 | 0.00 | 0.00 | 0.00 | 72 | 1011.4 |
| 20260904052922 | 81 | 135 | 5.0 | 9.0 | 0.00 | 0.00 | 0.00 | 72 | 1011.4 |
| 20260904052422 | 81 | 144 | 6.0 | 9.0 | 0.00 | 0.00 | 0.00 | 71 | 1011.4 |
| 20260904051922 | 81 | 142 | 5.0 | 9.0 | 0.00 | 0.00 | 0.00 | 71 | 1011.4 |
| 20260904051424 | 82 | 139 | 5.0 | 12.0 | 0.00 | 0.00 | 0.00 | 71 | 1011.3 |
| 20260904050922 | 82 | 146 | 6.0 | 13.0 | 0.00 | 0.00 | 0.00 | 71 | 1011.3 |
| 20260904050422 | 82 | 138 | 9.0 | 13.0 | 0.00 | 0.00 | 0.00 | 71 | 1011.2 |
| 20260904045422 | 82 | 123 | 8.0 | 13.0 | 0.00 | 0.00 | 0.00 | 70 | 1011.2 |
| 20260904044922 | 82 | 137 | 6.0 | 12.0 | 0.00 | 0.00 | 0.00 | 70 | 1011.3 |
| 20260904044422 | 82 | 149 | 6.0 | 13.0 | 0.00 | 0.00 | 0.00 | 69 | 1011.2 |
| 20260904043922 | 82 | 145 | 9.0 | 14.0 | 0.00 | 0.00 | 0.00 | 69 | 1011.3 |
| 20260904043422 | 82 | 157 | 8.0 | 15.0 | 0.00 | 0.00 | 0.00 | 69 | 1011.2 |
| 20260904042922 | 83 | 146 | 8.0 | 16.0 | 0.00 | 0.00 | 0.00 | 69 | 1011.3 |
| 20260904042422 | 83 | 154 | 10.0 | 16.0 | 0.00 | 0.00 | 0.00 | 69 | 1011.2 |
| 20260904041922 | 83 | 154 | 10.0 | 14.0 | 0.00 | 0.00 | 0.00 | 69 | 1011.3 |
| 20260904041422 | 83 | 151 | 8.0 | 16.0 | 0.00 | 0.00 | 0.00 | 69 | 1011.2 |
| 20260904040922 | 83 | 135 | 10.0 | 16.0 | 0.00 | 0.00 | 0.00 | 69 | 1011.3 |
| 20260904040423 | 83 | 150 | 9.0 | 16.0 | 0.00 | 0.00 | 0.00 | 69 | 1011.1 |
| 20260904035923 | 83 | 154 | 11.0 | 15.0 | 0.00 | 0.00 | 0.00 | 69 | 1011.3 |
| 20260904035423 | 84 | 143 | 8.0 | 15.0 | 0.00 | 0.00 | 0.00 | 69 | 1011.3 |
| 20260904034422 | 84 | 153 | 11.0 | 17.0 | 0.00 | 0.00 | 0.00 | 68 | 1011.3 |
| 20260904033922 | 84 | 132 | 10.0 | 17.0 | 0.00 | 0.00 | 0.00 | 69 | 1011.2 |
| 20260904032922 | 84 | 158 | 9.0 | 20.0 | 0.00 | 0.00 | 0.00 | 68 | 1011.2 |
| 20260904032423 | 84 | 158 | 12.0 | 18.0 | 0.00 | 0.00 | 0.00 | 68 | 1011.3 |
| 20260904031423 | 84 | 149 | 9.0 | 14.0 | 0.00 | 0.00 | 0.00 | 69 | 1011.3 |
| 20260904030923 | 84 | 152 | 7.0 | 13.0 | 0.00 | 0.00 | 0.00 | 69 | 1011.1 |
| 20260904025923 | 84 | 160 | 6.0 | 12.0 | 0.00 | 0.00 | 0.00 | 69 | 1011.0 |
| 20260904025423 | 84 | 152 | 6.0 | 13.0 | 0.00 | 0.00 | 0.00 | 69 | 1010.9 |
| 20260904024925 | 85 | 171 | 9.0 | 13.0 | 0.00 | 0.00 | 0.00 | 69 | 1010.8 |
| 20260904023923 | 85 | 161 | 7.0 | 13.0 | 0.00 | 0.00 | 0.00 | 68 | 1010.7 |
| 20260904023423 | 85 | 154 | 9.0 | 13.0 | 0.00 | 0.00 | 0.00 | 68 | 1010.7 |
| 20260904022923 | 85 | 151 | 10.0 | 16.0 | 0.00 | 0.00 | 0.00 | 67 | 1010.5 |
| 20260904022425 | 85 | 129 | 8.0 | 16.0 | 0.00 | 0.00 | 0.00 | 67 | 1010.5 |
| 20260904021923 | 85 | 142 | 9.0 | 17.0 | 0.00 | 0.00 | 0.00 | 67 | 1010.4 |
| 20260904021423 | 85 | 128 | 11.0 | 18.0 | 0.00 | 0.00 | 0.00 | 67 | 1010.4 |
| 20260904020923 | 86 | 140 | 11.0 | 18.0 | 0.00 | 0.00 | 0.00 | 67 | 1010.2 |
| 20260904020423 | 86 | 118 | 7.0 | 16.0 | 0.00 | 0.00 | 0.00 | 67 | 1010.2 |
| 20260904015423 | 86 | 106 | 7.0 | 14.0 | 0.00 | 0.00 | 0.00 | 67 | 1010.1 |
| 20260904014923 | 86 | 130 | 8.0 | 16.0 | 0.00 | 0.00 | 0.00 | 66 | 1010.0 |
| 20260904013923 | 87 | 151 | 9.0 | 18.0 | 0.00 | 0.00 | 0.00 | 66 | 1009.7 |
| 20260904013423 | 87 | 136 | 9.0 | 20.0 | 0.00 | 0.00 | 0.00 | 66 | 1009.7 |
| 20260904012923 | 87 | 149 | 12.0 | 20.0 | 0.00 | 0.00 | 0.00 | 66 | 1009.5 |
| 20260904012424 | 87 | 140 | 11.0 | 20.0 | 0.00 | 0.00 | 0.00 | 66 | 1009.5 |
| 20260904011925 | 87 | 147 | 9.0 | 17.0 | 0.00 | 0.00 | 0.00 | 65 | 1009.4 |
| 20260904011424 | 87 | 131 | 10.0 | 17.0 | 0.00 | 0.00 | 0.00 | 65 | 1009.4 |
| 20260904010924 | 87 | 133 | 6.0 | 14.0 | 0.00 | 0.00 | 0.00 | 64 | 1009.4 |
| 20260904005924 | 88 | 152 | 11.0 | 14.0 | 0.00 | 0.00 | 0.00 | 63 | 1009.3 |
| 20260904005424 | 88 | 147 | 7.0 | 13.0 | 0.00 | 0.00 | 0.00 | 63 | 1009.3 |
| 20260904004924 | 88 | 154 | 8.0 | 12.0 | 0.00 | 0.00 | 0.00 | 63 | 1009.2 |
| 20260904004423 | 88 | 152 | 8.0 | 12.0 | 0.00 | 0.00 | 0.00 | 63 | 1009.2 |
| 20260904003423 | 89 | 150 | 8.0 | 13.0 | 0.00 | 0.00 | 0.00 | 63 | 1009.2 |
| 20260904002923 | 89 | 143 | 8.0 | 13.0 | 0.00 | 0.00 | 0.00 | 63 | 1009.2 |
| 20260904002423 | 89 | 140 | 7.0 | 14.0 | 0.00 | 0.00 | 0.00 | 63 | 1009.2 |
| 20260904001925 | 89 | 148 | 7.0 | 17.0 | 0.00 | 0.00 | 0.00 | 63 | 1009.2 |
| 20260904001426 | 89 | 138 | 9.0 | 17.0 | 0.00 | 0.00 | 0.00 | 63 | 1009.1 |
| 20260904000924 | 89 | 138 | 10.0 | 14.0 | 0.00 | 0.00 | 0.00 | 63 | 1009.1 |
| 20260904000425 | 89 | 131 | 7.0 | 12.0 | 0.00 | 0.00 | 0.00 | 63 | 1008.9 |
| 20260903235923 | 89 | 146 | 6.0 | 15.0 | 0.00 | 0.00 | 0.00 | 62 | 1009.0 |
| 20260903235425 | 89 | 155 | 10.0 | 15.0 | 0.00 | 0.00 | 0.00 | 62 | 1008.9 |
| 20260903234424 | 89 | 133 | 7.0 | 14.0 | 0.00 | 0.00 | 0.00 | 62 | 1008.8 |
| 20260903233926 | 89 | 138 | 7.0 | 15.0 | 0.00 | 0.00 | 0.00 | 62 | 1008.9 |
| 20260903233426 | 90 | 138 | 7.0 | 18.0 | 0.00 | 0.00 | 0.00 | 62 | 1008.8 |
| 20260903232924 | 90 | 140 | 10.0 | 18.0 | 0.00 | 0.00 | 0.00 | 61 | 1008.9 |
| 20260903232424 | 90 | 128 | 6.0 | 16.0 | 0.00 | 0.00 | 0.00 | 61 | 1008.8 |
| 20260903231924 | 90 | 121 | 9.0 | 16.0 | 0.00 | 0.00 | 0.00 | 61 | 1008.8 |
| 20260903231424 | 91 | 152 | 11.0 | 16.0 | 0.00 | 0.00 | 0.00 | 60 | 1008.6 |
| 20260903230924 | 92 | 147 | 9.0 | 14.0 | 0.00 | 0.00 | 0.00 | 59 | 1008.5 |
| 20260903230425 | 92 | 108 | 6.0 | 14.0 | 0.00 | 0.00 | 0.00 | 59 | 1008.5 |
| 20260903225924 | 91 | 112 | 7.0 | 14.0 | 0.00 | 0.00 | 0.00 | 61 | 1008.6 |
| 20260903225424 | 91 | 95 | 6.0 | 14.0 | 0.00 | 0.00 | 0.00 | 61 | 1008.7 |
| 20260903224924 | 91 | 165 | 10.0 | 17.0 | 0.00 | 0.00 | 0.00 | 60 | 1008.8 |
| 20260903223925 | 92 | 180 | 9.0 | 15.0 | 0.00 | 0.00 | 0.00 | 60 | 1008.7 |
| 20260903223425 | 91 | 117 | 7.0 | 14.0 | 0.00 | 0.00 | 0.00 | 61 | 1008.7 |
| 20260903222926 | 91 | 116 | 9.0 | 14.0 | 0.00 | 0.00 | 0.00 | 61 | 1008.6 |
| 20260903221925 | 90 | 141 | 10.0 | 16.0 | 0.00 | 0.00 | 0.00 | 62 | 1008.5 |
| 20260903221424 | 90 | 153 | 11.0 | 15.0 | 0.00 | 0.00 | 0.00 | 62 | 1008.7 |
| 20260903220924 | 90 | 156 | 12.0 | 17.0 | 0.00 | 0.00 | 0.00 | 62 | 1008.7 |
| 20260903220426 | 90 | 119 | 9.0 | 17.0 | 0.00 | 0.00 | 0.00 | 62 | 1008.8 |
| 20260903215925 | 90 | 136 | 7.0 | 18.0 | 0.00 | 0.00 | 0.00 | 62 | 1008.6 |
| 20260903214925 | 91 | 143 | 9.0 | 17.0 | 0.00 | 0.00 | 0.00 | 60 | 1008.8 |
| 20260903214425 | 92 | 146 | 9.0 | 17.0 | 0.00 | 0.00 | 0.00 | 60 | 1008.8 |
| 20260903213925 | 92 | 118 | 5.0 | 18.0 | 0.00 | 0.00 | 0.00 | 60 | 1008.8 |
| 20260903212925 | 92 | 126 | 10.0 | 20.0 | 0.00 | 0.00 | 0.00 | 61 | 1008.7 |
| 20260903212425 | 91 | 125 | 12.0 | 20.0 | 0.00 | 0.00 | 0.00 | 61 | 1008.7 |
| 20260903211925 | 91 | 127 | 10.0 | 15.0 | 0.00 | 0.00 | 0.00 | 62 | 1008.8 |
| 20260903211425 | 92 | 155 | 12.0 | 20.0 | 0.00 | 0.00 | 0.00 | 61 | 1008.8 |
| 20260903210925 | 91 | 175 | 11.0 | 20.0 | 0.00 | 0.00 | 0.00 | 63 | 1009.0 |
| 20260903205927 | 90 | 187 | 13.0 | 20.0 | 0.00 | 0.00 | 0.00 | 64 | 1009.1 |
| 20260903205425 | 90 | 196 | 12.0 | 20.0 | 0.00 | 0.00 | 0.00 | 64 | 1009.2 |
| 20260903204925 | 91 | 175 | 13.0 | 20.0 | 0.00 | 0.00 | 0.00 | 64 | 1009.4 |
| 20260903204425 | 91 | 151 | 13.0 | 23.0 | 0.00 | 0.00 | 0.00 | 64 | 1009.4 |
| 20260903203925 | 91 | 168 | 13.0 | 23.0 | 0.00 | 0.00 | 0.00 | 64 | 1009.3 |
| 20260903203425 | 91 | 141 | 12.0 | 20.0 | 0.00 | 0.00 | 0.00 | 65 | 1009.4 |
| 20260903202925 | 90 | 158 | 13.0 | 22.0 | 0.00 | 0.00 | 0.00 | 65 | 1009.4 |
| 20260903202425 | 90 | 171 | 13.0 | 22.0 | 0.00 | 0.00 | 0.00 | 65 | 1009.5 |
| 20260903201926 | 90 | 158 | 13.0 | 21.0 | 0.00 | 0.00 | 0.00 | 64 | 1009.6 |
| 20260903200925 | 91 | 162 | 14.0 | 20.0 | 0.00 | 0.00 | 0.00 | 64 | 1009.7 |
| 20260903200425 | 91 | 153 | 12.0 | 22.0 | 0.00 | 0.00 | 0.00 | 66 | 1009.6 |
| 20260903195925 | 90 | 160 | 11.0 | 22.0 | 0.00 | 0.00 | 0.00 | 66 | 1009.7 |
| 20260903195425 | 90 | 149 | 10.0 | 20.0 | 0.00 | 0.00 | 0.00 | 67 | 1009.7 |
| 20260903194926 | 90 | 176 | 13.0 | 20.0 | 0.00 | 0.00 | 0.00 | 66 | 1009.9 |
| 20260903194426 | 90 | 125 | 10.0 | 22.0 | 0.00 | 0.00 | 0.00 | 67 | 1009.8 |
| 20260903193426 | 89 | 161 | 14.0 | 23.0 | 0.00 | 0.00 | 0.00 | 68 | 1010.0 |
| 20260903192926 | 89 | 174 | 13.0 | 20.0 | 0.00 | 0.00 | 0.00 | 68 | 1010.1 |
| 20260903191425 | 89 | 166 | 15.0 | 20.0 | 0.00 | 0.00 | 0.00 | 68 | 1010.3 |
| 20260903190927 | 89 | 189 | 10.0 | 22.0 | 0.00 | 0.00 | 0.00 | 68 | 1010.3 |
| 20260903185925 | 90 | 162 | 7.0 | 15.0 | 0.00 | 0.00 | 0.00 | 67 | 1010.5 |
| 20260903185425 | 90 | 126 | 9.0 | 16.0 | 0.00 | 0.00 | 0.00 | 67 | 1010.6 |
| 20260903184426 | 89 | 161 | 12.0 | 23.0 | 0.00 | 0.00 | 0.00 | 67 | 1010.7 |
| 20260903183926 | 90 | 135 | 10.0 | 23.0 | 0.00 | 0.00 | 0.00 | 66 | 1010.7 |
| 20260903183426 | 90 | 163 | 14.0 | 23.0 | 0.00 | 0.00 | 0.00 | 66 | 1010.8 |
| 20260903182928 | 90 | 126 | 10.0 | 20.0 | 0.00 | 0.00 | 0.00 | 67 | 1010.8 |
| 20260903182426 | 90 | 175 | 14.0 | 20.0 | 0.00 | 0.00 | 0.00 | 66 | 1010.8 |
| 20260903181926 | 89 | 156 | 11.0 | 20.0 | 0.00 | 0.00 | 0.00 | 68 | 1010.8 |
| 20260903181426 | 89 | 196 | 12.0 | 23.0 | 0.00 | 0.00 | 0.00 | 68 | 1010.8 |
| 20260903180928 | 89 | 147 | 14.0 | 23.0 | 0.00 | 0.00 | 0.00 | 68 | 1010.9 |
| 20260903180426 | 89 | 169 | 12.0 | 20.0 | 0.00 | 0.00 | 0.00 | 68 | 1011.0 |
| 20260903175426 | 88 | 193 | 10.0 | 16.0 | 0.00 | 0.00 | 0.00 | 69 | 1011.1 |
| 20260903174926 | 88 | 188 | 8.0 | 18.0 | 0.00 | 0.00 | 0.00 | 70 | 1011.3 |
| 20260903174426 | 87 | 143 | 12.0 | 18.0 | 0.00 | 0.00 | 0.00 | 70 | 1011.3 |
| 20260903173926 | 87 | 140 | 8.0 | 20.0 | 0.00 | 0.00 | 0.00 | 71 | 1011.4 |
| 20260903172926 | 86 | 189 | 10.0 | 18.0 | 0.00 | 0.00 | 0.00 | 71 | 1011.6 |
| 20260903172426 | 86 | 197 | 10.0 | 18.0 | 0.00 | 0.00 | 0.00 | 72 | 1011.7 |
| 20260903171926 | 86 | 152 | 11.0 | 18.0 | 0.00 | 0.00 | 0.00 | 72 | 1011.6 |
| 20260903171426 | 86 | 173 | 10.0 | 18.0 | 0.00 | 0.00 | 0.00 | 72 | 1011.7 |
| 20260903170926 | 86 | 164 | 11.0 | 17.0 | 0.00 | 0.00 | 0.00 | 72 | 1011.7 |
| 20260903170426 | 86 | 170 | 9.0 | 14.0 | 0.00 | 0.00 | 0.00 | 73 | 1011.7 |
| 20260903165928 | 85 | 188 | 9.0 | 17.0 | 0.00 | 0.00 | 0.00 | 73 | 1011.6 |
| 20260903164927 | 85 | 176 | 10.0 | 16.0 | 0.00 | 0.00 | 0.00 | 73 | 1011.6 |
| 20260903164427 | 85 | 154 | 7.0 | 16.0 | 0.00 | 0.00 | 0.00 | 73 | 1011.7 |
| 20260903163426 | 84 | 186 | 11.0 | 16.0 | 0.00 | 0.00 | 0.00 | 74 | 1011.8 |
| 20260903162928 | 84 | 163 | 13.0 | 16.0 | 0.00 | 0.00 | 0.00 | 74 | 1011.7 |
| 20260903162426 | 84 | 109 | 8.0 | 16.0 | 0.00 | 0.00 | 0.00 | 75 | 1011.7 |
| 20260903161928 | 84 | 136 | 10.0 | 16.0 | 0.00 | 0.00 | 0.00 | 75 | 1011.9 |
| 20260903161427 | 85 | 148 | 10.0 | 14.0 | 0.00 | 0.00 | 0.00 | 74 | 1011.8 |
| 20260903155927 | 84 | 158 | 7.0 | 13.0 | 0.00 | 0.00 | 0.00 | 76 | 1011.7 |
| 20260903155427 | 84 | 123 | 8.0 | 12.0 | 0.00 | 0.00 | 0.00 | 76 | 1011.5 |
| 20260903154926 | 84 | 159 | 3.0 | 12.0 | 0.00 | 0.00 | 0.00 | 78 | 1011.8 |
| 20260903154428 | 83 | 150 | 9.0 | 12.0 | 0.00 | 0.00 | 0.00 | 78 | 1011.7 |
| 20260903153927 | 82 | 177 | 7.0 | 12.0 | 0.00 | 0.00 | 0.00 | 78 | 1011.7 |
| 20260903152927 | 82 | 182 | 7.0 | 12.0 | 0.00 | 0.00 | 0.00 | 78 | 1011.7 |
| 20260903152427 | 83 | 153 | 7.0 | 12.0 | 0.00 | 0.00 | 0.00 | 78 | 1011.7 |
| 20260903151927 | 83 | 143 | 8.0 | 12.0 | 0.00 | 0.00 | 0.00 | 78 | 1011.7 |
| 20260903151427 | 82 | 137 | 7.0 | 12.0 | 0.00 | 0.00 | 0.00 | 78 | 1011.7 |
| 20260903150927 | 82 | 121 | 6.0 | 12.0 | 0.00 | 0.00 | 0.00 | 79 | 1011.7 |
| 20260903150427 | 82 | 118 | 7.0 | 12.0 | 0.00 | 0.00 | 0.00 | 78 | 1011.7 |
| 20260903145929 | 82 | 124 | 6.0 | 14.0 | 0.00 | 0.00 | 0.00 | 78 | 1011.7 |
| 20260903144427 | 82 | 142 | 6.0 | 12.0 | 0.00 | 0.00 | 0.00 | 78 | 1011.9 |
| 20260903143927 | 82 | 131 | 5.0 | 15.0 | 0.00 | 0.00 | 0.00 | 78 | 1011.7 |
| 20260903143428 | 82 | 126 | 8.0 | 15.0 | 0.00 | 0.00 | 0.00 | 77 | 1011.7 |
| 20260903142927 | 82 | 148 | 8.0 | 12.0 | 0.00 | 0.00 | 0.00 | 76 | 1011.8 |
| 20260903142428 | 83 | 139 | 7.0 | 12.0 | 0.00 | 0.00 | 0.00 | 75 | 1011.7 |
| 20260903141928 | 83 | 127 | 6.0 | 12.0 | 0.00 | 0.00 | 0.00 | 75 | 1011.7 |
| 20260903140927 | 83 | 105 | 5.0 | 13.0 | 0.00 | 0.00 | 0.00 | 76 | 1011.7 |
| 20260903140427 | 83 | 117 | 6.0 | 12.0 | 0.00 | 0.00 | 0.00 | 75 | 1011.6 |
| 20260903135927 | 84 | 107 | 5.0 | 12.0 | 0.00 | 0.00 | 0.00 | 76 | 1011.7 |
| 20260903134928 | 83 | 99 | 2.0 | 8.0 | 0.00 | 0.00 | 0.00 | 77 | 1011.6 |
| 20260903134427 | 83 | 91 | 3.0 | 9.0 | 0.00 | 0.00 | 0.00 | 78 | 1011.7 |
| 20260903133927 | 82 | 87 | 3.0 | 9.0 | 0.00 | 0.00 | 0.00 | 78 | 1011.7 |
| 20260903133428 | 82 | 90 | 4.0 | 9.0 | 0.00 | 0.00 | 0.00 | 78 | 1011.8 |
| 20260903131928 | 82 | 80 | 2.0 | 7.0 | 0.00 | 0.00 | 0.00 | 80 | 1011.6 |
| 20260903131428 | 81 | 85 | 2.0 | 7.0 | 0.00 | 0.00 | 0.00 | 81 | 1011.8 |
| 20260903130928 | 80 | 119 | 0.0 | 3.0 | 0.00 | 0.00 | 0.00 | 82 | 1011.6 |
| 20260903130428 | 80 | 79 | 1.0 | 3.0 | 0.00 | 0.00 | 0.00 | 81 | 1011.6 |
| 20260903125927 | 80 | 85 | 2.0 | 5.0 | 0.00 | 0.00 | 0.00 | 82 | 1011.7 |
| 20260903125428 | 80 | 79 | 1.0 | 5.0 | 0.00 | 0.00 | 0.00 | 82 | 1011.6 |
| 20260903124927 | 80 | 72 | 2.0 | 3.0 | 0.00 | 0.00 | 0.00 | 81 | 1011.6 |
| 20260903124428 | 80 | 88 | 0.0 | 1.0 | 0.00 | 0.00 | 0.00 | 81 | 1011.5 |
| 20260903123928 | 80 | 66 | 0.0 | 1.0 | 0.00 | 0.00 | 0.00 | 82 | 1011.5 |
| 20260903123428 | 79 | 92 | 0.0 | 3.0 | 0.00 | 0.00 | 0.00 | 81 | 1011.4 |
| 20260903122930 | 80 | 89 | 1.0 | 3.0 | 0.00 | 0.00 | 0.00 | 82 | 1011.3 |
| 20260903122427 | 79 | 77 | 2.0 | 3.0 | 0.00 | 0.00 | 0.00 | 82 | 1011.4 |
| 20260903121428 | 79 | 82 | 1.0 | 3.0 | 0.00 | 0.00 | 0.00 | 81 | 1011.3 |
| 20260903120928 | 80 | 91 | 1.0 | 5.0 | 0.00 | 0.00 | 0.00 | 81 | 1011.1 |
| 20260903120428 | 79 | 88 | 2.0 | 5.0 | 0.00 | 0.00 | 0.00 | 81 | 1011.1 |
| 20260903115428 | 80 | 80 | 0.0 | 3.0 | 0.00 | 0.00 | 0.00 | 81 | 1011.0 |
| 20260903114929 | 80 | 84 | 1.0 | 6.0 | 0.00 | 0.00 | 0.00 | 80 | 1011.1 |
| 20260903114428 | 80 | 85 | 2.0 | 6.0 | 0.00 | 0.00 | 0.00 | 80 | 1011.0 |
| 20260903113928 | 80 | 71 | 2.0 | 5.0 | 0.00 | 0.00 | 0.00 | 80 | 1011.1 |
| 20260903113428 | 80 | 85 | 1.0 | 3.0 | 0.00 | 0.00 | 0.00 | 80 | 1011.0 |
| 20260903112928 | 80 | 87 | 1.0 | 3.0 | 0.00 | 0.00 | 0.00 | 79 | 1011.2 |
| 20260903111428 | 80 | 89 | 1.0 | 3.0 | 0.00 | 0.00 | 0.00 | 80 | 1011.0 |
| 20260903110429 | 80 | 81 | 1.0 | 3.0 | 0.00 | 0.00 | 0.00 | 81 | 1010.9 |
| 20260903105929 | 79 | 118 | 2.0 | 3.0 | 0.00 | 0.00 | 0.00 | 81 | 1010.8 |
| 20260903105429 | 80 | 122 | 3.0 | 3.0 | 0.00 | 0.00 | 0.00 | 81 | 1010.8 |
| 20260903104929 | 79 | 109 | 2.0 | 6.0 | 0.00 | 0.00 | 0.00 | 81 | 1010.7 |
| 20260903103928 | 79 | 110 | 3.0 | 6.0 | 0.00 | 0.00 | 0.00 | 81 | 1010.8 |